OPS 4682 DEB, 20131

Orbit data source: Space-Track

OPS 4682 DEB, 20131 is space debris in LEO originally from a launch on Sat, 03 Apr 1965 UTC launched from the Air Force Western Test Range (AFWTR). Debris objects in space refer to the collection of defunct objects orbiting the Earth. Examples of debris include non-operational satellites, rocket bodies, and fragments generated from explosions, collisions, or faulty payload assembly.

Loading next visibility...
Identifier
20131, 1965-027BD
Orbit
LEO
Country
Flag of USUS
Related business
Manufacturer
Unknown
Mission
Spacecraft
Bus & Motor
Unknown
Mass
Unknown
Launch date (UTC)
1965-04-03 (61 years ago)
Launch vehicle
Unknown
Launch site
Air Force Western Test Range (AFWTR)
Object type
Payload
Rocket body
Debris
Shape & HBR
Unknown shape, 0.1 m
Radar Cross Section
Small (<0.1 m²)

Expand to show TLE details & history
Last TLE update: 1 day ago

TLE from 1 day ago
0 OPS 4682 DEB
1 20131U 65027BD  26120.63578807 -.00000226  00000-0 -77201-3 0  9994
2 20131  90.2438   3.5314 0035294  78.9804 308.9969 13.00333823758796
Epoch: 2026-04-30T15:15Z
TLE epoch observation values (Epoch: 2026-04-30T15:15:32.089Z)
Latitude
27.6989°
Longitude
-84.05921°
Altitude
1,247.268 km
Speed
7.242 km/s
True Right ascension
00h 13m 36s
True Declination
27° 34' 00"
Sunlit
Object was in daylight at epoch
Visualization orbit readout
Latitude
Unknown
Longitude
Unknown
Altitude
Unknown
Speed
Unknown
Apparent Right ascension
Unknown
Apparent Declination
Unknown
Sunlit
N/A
Visualization observer readout
Local Sidereal Time
03:52:06
Azimuth
Unknown
Elevation
Unknown
Doppler factor
Unknown
Orbital elements
Apogee altitude
1,284.856 km
Perigee altitude
1,230.955 km
Semi-major axis
7,636.042 km
Eccentricity
0.00353
Inclination
90.2438°
RAAN
3.5314°
Arg. of periapsis
78.9804°
True anomaly
308.6817°
Mean anomaly
308.9969°
Eccentric anomaly
308.83939°
Mean motion
3.25267 °/min
Orbital period
110.68 mins
BSTAR
-0.00077201
Loading maneuver chart data...
Computing Atmospheric mass density...
Loading historical data...
Loading historical data...
Loading historical data...
Loading historical data...
Loading historical data...
Loading historical data...
Loading historical data...

Documentation

Showing up to 5 results
|